CDT,Max TemperatureF,Mean TemperatureF,Min TemperatureF,Max Dew PointF,MeanDew PointF,Min DewpointF,Max Humidity, Mean Humidity, Min Humidity, Max Sea Level PressureIn, Mean Sea Level PressureIn, Min Sea Level PressureIn, Max VisibilityMiles, Mean VisibilityMiles, Min VisibilityMiles, Max Wind SpeedMPH, Mean Wind SpeedMPH, Max Gust SpeedMPH,PrecipitationIn, CloudCover, Events, WindDirDegrees
2013-9-1,84,78,71,76,72,67,100,82,62,29.88,29.83,29.77,10,10,7,13,6,22,0.00,1,Rain-Thunderstorm,209
2013-9-2,86,76,65,78,70,63,100,83,51,29.93,29.88,29.84,10,8,0,10,2,,0.00,2,Fog,324
2013-9-3,83,73,63,67,63,58,100,76,44,30.07,30.00,29.93,10,10,10,9,2,,0.00,1,,355
2013-9-4,81,69,57,68,62,58,100,81,47,30.16,30.11,30.06,10,9,2,7,1,,0.00,0,,10
2013-9-5,84,70,56,69,63,56,100,81,47,30.21,30.16,30.13,10,8,1,6,1,,0.00,0,,78
2013-9-6,86,74,62,70,66,62,100,80,43,30.18,30.12,30.06,10,7,1,6,1,,0.00,0,,101
2013-9-7,88,74,61,73,67,62,100,79,48,30.08,30.03,29.96,10,7,0,9,1,,0.00,1,Fog,233
2013-9-8,87,76,64,76,70,65,100,84,56,30.00,29.96,29.91,10,8,2,6,0,,0.00,1,,60
2013-9-9,91,82,73,76,73,69,100,79,49,30.02,29.98,29.94,10,8,3,8,2,,0.00,2,Thunderstorm,181
2013-9-10,91,82,73,76,73,68,100,80,47,30.16,30.09,30.02,10,8,2,10,1,,0.29,2,Rain-Thunderstorm,161
2013-9-11,91,80,69,76,71,66,100,82,49,30.17,30.12,30.06,10,7,1,10,1,18,0.00,0,Thunderstorm,189
2013-9-12,86,76,65,76,70,64,100,86,56,30.06,30.02,29.95,10,8,2,15,2,21,0.08,1,Rain,325
2013-9-13,75,65,55,65,56,50,100,73,44,30.08,30.04,30.01,10,10,5,12,3,18,0.00,1,,15
2013-9-14,73,61,49,55,50,45,100,75,36,30.16,30.09,30.06,10,10,5,8,2,,0.00,0,,50
2013-9-15,80,63,46,60,54,47,100,73,39,30.12,30.08,30.05,10,10,5,8,2,,0.00,0,,210
2013-9-16,75,68,60,64,62,59,100,83,64,30.21,30.16,30.09,10,10,10,8,2,,0.00,5,Rain,7
2013-9-17,81,71,61,66,63,61,100,81,51,30.21,30.15,30.09,10,7,2,7,1,,0.00,0,,83
2013-9-18,85,74,64,72,68,65,100,83,57,30.13,30.07,30.01,10,8,5,9,2,,0.00,2,,167
2013-9-19,86,78,71,71,70,67,96,78,59,30.08,30.03,29.95,10,9,5,12,4,16,0.00,2,,183
2013-9-20,75,72,68,73,69,65,100,89,71,29.98,29.90,29.83,10,7,2,10,5,,0.62,6,Rain,205
2013-9-21,73,64,54,68,54,47,100,75,40,29.92,29.88,29.84,10,10,5,15,7,21,0.09,2,Rain,345
2013-9-22,75,63,51,56,51,48,100,73,40,30.00,29.95,29.91,10,10,5,8,2,,0.00,0,,28
2013-9-23,77,62,47,58,53,48,100,77,37,30.03,29.97,29.93,10,10,2,9,1,,0.00,0,,99
2013-9-24,79,65,52,70,62,52,100,93,65,29.96,29.89,29.82,10,8,0,8,1,,0.37,4,Fog-Rain-Thunderstorm,145
2013-9-25,81,70,61,71,65,61,100,89,58,29.88,29.83,29.81,10,6,0,6,1,,0.01,5,Fog,78
2013-9-26,82,70,58,69,62,58,100,83,46,30.03,29.96,29.87,10,6,0,5,1,,0.00,1,Fog,93
2013-9-27,81,68,54,64,57,50,100,78,35,30.13,30.07,30.03,10,7,0,5,1,,0.00,0,Fog,117
2013-9-28,81,68,56,63,58,53,100,70,38,30.13,30.07,30.03,10,9,2,13,3,18,0.00,2,,172
2013-9-29,69,66,63,65,62,56,100,92,63,30.06,30.02,29.99,10,8,1,7,3,,1.13,8,Rain,170
2013-9-30,69,66,64,67,65,64,100,96,84,30.01,29.98,29.95,10,7,1,8,2,,0.00,8,Rain,172